Tahlequah, OK

6:25 PM CST on February 05, 2016 (GMT -0600)
Tahlequah Municipal

Weather History for KTQH - February, 2013

Change the Weather History Date:

Saturday, February 23, 2013

  Actual Average (KMKO) Record (KMKO)
Temperature  
Mean Temperature 32 °F -  
Max Temperature 44 °F 52 °F 71 °F (2007)
Min Temperature 19 °F 32 °F 19 °F (2015)
Degree Days  
Heating Degree Days 34    
Moisture  
Dew Point 23 °F    
Average Humidity 73    
Maximum Humidity 100    
Minimum Humidity 39    
Precipitation  
Precipitation 0.00 in - - ()
Sea Level Pressure  
Sea Level Pressure 30.03 in    
Wind  
Wind Speed 0 mph (WNW)    
Max Wind Speed 6 mph    
Max Gust Speed -    
Visibility 9 miles    
Events      
Averages and records for this station are not official NWS values.
T = Trace of Precipitation, MM = Missing Value Source: NWS Daily Summary

Daily Weather History Graph

Daily Weather History Graph

Search for Another Location

Airport or City:

Trip Planner

Search our weather history database for the weather conditions in past years. The results will help you decide how hot, cold, wet, or windy it might be!

Date:

Astronomy

Feb. 23, 2013 Rise Set
Actual Time 6:57 AM CST 6:09 PM CST
Civil Twilight 6:31 AM CST 6:35 PM CST
Nautical Twilight 6:01 AM CST 7:05 PM CST
Astronomical Twilight 5:32 AM CST 7:35 PM CST
Moon 4:22 PM CST (2/23) 5:17 AM CST (2/23)
Length of Visible Light 12h 03m
Length of Day
11h 12m
Waxing Gibbous, 95% of the Moon is Illuminated
Feb 23
Waxing Gibbous
Feb 25
Full
Mar 4
Last Quarter
Mar 11
New
Mar 19
First Quarter

Hourly Weather History & Observations

Time (CST) Temp. Windchill Dew Point Humidity Pressure Visibility Wind Dir Wind Speed Gust Speed Precip Events Conditions
12:15 AM 26.6 °F - 21.2 °F 80% 30.12 in 10.0 mi Calm Calm - N/A   Clear
12:35 AM 26.6 °F - 21.2 °F 80% 30.12 in 10.0 mi Calm Calm - N/A   Clear
12:55 AM 26.6 °F 22.6 °F 21.2 °F 80% 30.12 in 10.0 mi NNW 3.5 mph - N/A   Clear
1:15 AM 24.8 °F - 21.2 °F 86% 30.12 in 10.0 mi Calm Calm - N/A   Clear
1:35 AM 23.0 °F - 21.2 °F 93% 30.11 in 10.0 mi Calm Calm - N/A   Clear
1:55 AM 23.0 °F - 21.2 °F 93% 30.11 in 10.0 mi Calm Calm - N/A   Clear
2:15 AM 23.0 °F - 21.2 °F 93% 30.10 in 10.0 mi Calm Calm - N/A   Clear
2:35 AM 23.0 °F - 21.2 °F 93% 30.10 in 7.0 mi Calm Calm - N/A   Clear
2:55 AM 23.0 °F - 21.2 °F 93% 30.10 in 10.0 mi Calm Calm - N/A   Clear
3:15 AM 23.0 °F - 21.2 °F 93% 30.09 in 10.0 mi Calm Calm - N/A   Clear
3:35 AM 21.2 °F - 21.2 °F 100% 30.08 in 7.0 mi Calm Calm - N/A   Clear
3:55 AM 21.2 °F - 21.2 °F 100% 30.08 in 7.0 mi Calm Calm - N/A   Clear
4:15 AM 21.2 °F - 21.2 °F 100% 30.07 in 7.0 mi Calm Calm - N/A   Clear
4:35 AM 21.2 °F - 19.4 °F 93% 30.06 in 5.0 mi Calm Calm - N/A   Clear
4:55 AM 21.2 °F - 19.4 °F 93% 30.05 in 7.0 mi Calm Calm - N/A   Clear
5:15 AM 21.2 °F - 19.4 °F 93% 30.05 in 7.0 mi Calm Calm - N/A   Clear
5:35 AM 21.2 °F - 21.2 °F 100% 30.06 in 7.0 mi Calm Calm - N/A   Clear
5:55 AM 21.2 °F - 19.4 °F 93% 30.05 in 7.0 mi Calm Calm - N/A   Clear
6:15 AM 21.2 °F - 19.4 °F 93% 30.05 in 7.0 mi Calm Calm - N/A   Clear
6:35 AM 19.4 °F - 19.4 °F 100% 30.06 in 7.0 mi Calm Calm - N/A   Clear
6:55 AM 19.4 °F - 19.4 °F 100% 30.06 in 7.0 mi Calm Calm - N/A   Clear
7:15 AM 21.2 °F - 19.4 °F 93% 30.06 in 5.0 mi Calm Calm - N/A   Clear
7:35 AM 21.2 °F - 21.2 °F 100% 30.06 in 5.0 mi Calm Calm - N/A   Clear
7:55 AM 23.0 °F - 23.0 °F 100% 30.06 in 5.0 mi Calm Calm - N/A   Clear
8:15 AM 26.6 °F - 23.0 °F 86% 30.06 in 7.0 mi Calm Calm - N/A   Clear
8:55 AM 30.2 °F 26.7 °F 24.8 °F 80% 30.07 in 10.0 mi North 3.5 mph - N/A   Clear
9:15 AM 30.2 °F - 23.0 °F 75% 30.07 in 10.0 mi Calm Calm - N/A   Clear
9:35 AM 32.0 °F - 23.0 °F 69% 30.07 in 10.0 mi Calm Calm - N/A   Clear
9:55 AM 33.8 °F - 23.0 °F 65% 30.08 in 10.0 mi Calm Calm - N/A   Clear
10:15 AM 33.8 °F - 21.2 °F 60% 30.08 in 10.0 mi Calm Calm - N/A   Clear
10:35 AM 33.8 °F - 21.2 °F 60% 30.07 in 10.0 mi Calm Calm - N/A   Clear
10:55 AM 35.6 °F - 21.2 °F 56% 30.07 in 10.0 mi Calm Calm - N/A   Clear
11:15 AM 37.4 °F - 19.4 °F 48% 30.07 in 10.0 mi Calm Calm - N/A   Clear
11:35 AM 39.2 °F - 21.2 °F 49% 30.07 in 10.0 mi Calm Calm - N/A   Clear
11:55 AM 39.2 °F - 23.0 °F 52% 30.07 in 10.0 mi Calm Calm - N/A   Clear
12:15 PM 39.2 °F 35.0 °F 21.2 °F 49% 30.08 in 10.0 mi WSW 5.8 mph - N/A   Clear
12:35 PM 41.0 °F 39.0 °F 21.2 °F 45% 30.08 in 10.0 mi West 3.5 mph - N/A   Clear
12:55 PM 41.0 °F 38.0 °F 21.2 °F 45% 30.06 in 10.0 mi West 4.6 mph - N/A   Clear
1:15 PM 41.0 °F - 23.0 °F 49% 30.05 in 10.0 mi Calm Calm - N/A   Clear
1:35 PM 42.8 °F 40.1 °F 21.2 °F 42% 30.04 in 10.0 mi WSW 4.6 mph - N/A   Clear
1:55 PM 42.8 °F - 21.2 °F 42% 30.02 in 10.0 mi Calm Calm - N/A   Clear
2:15 PM 42.8 °F - 21.2 °F 42% 30.01 in 10.0 mi Calm Calm - N/A   Clear
2:35 PM 44.6 °F - 21.2 °F 39% 30.00 in 10.0 mi Calm Calm - N/A   Clear
2:55 PM 44.6 °F 43.1 °F 23.0 °F 43% 29.99 in 10.0 mi NW 3.5 mph - N/A   Clear
3:15 PM 44.6 °F - 23.0 °F 43% 29.98 in 10.0 mi Calm Calm - N/A   Clear
3:35 PM 44.6 °F - 23.0 °F 43% 29.97 in 10.0 mi Calm Calm - N/A   Clear
3:55 PM 44.6 °F - 23.0 °F 43% 29.96 in 10.0 mi Calm Calm - N/A   Clear
4:15 PM 44.6 °F - 23.0 °F 43% 29.96 in 10.0 mi Calm Calm - N/A   Clear
4:35 PM 44.6 °F - 23.0 °F 43% 29.97 in 10.0 mi Calm Calm - N/A   Clear
4:55 PM 44.6 °F - 23.0 °F 43% 29.96 in 10.0 mi Calm Calm - N/A   Clear
5:15 PM 44.6 °F - 23.0 °F 43% 29.97 in 10.0 mi Calm Calm - N/A   Clear
5:35 PM 42.8 °F - 23.0 °F 46% 29.97 in 10.0 mi Calm Calm - N/A   Clear
5:55 PM 42.8 °F - 23.0 °F 46% 29.96 in 10.0 mi Calm Calm - N/A   Clear
6:15 PM 41.0 °F - 23.0 °F 49% 29.96 in 10.0 mi Calm Calm - N/A   Clear
6:35 PM 37.4 °F - 23.0 °F 56% 29.97 in 10.0 mi Calm Calm - N/A   Clear
6:55 PM 33.8 °F - 28.4 °F 81% 29.99 in 10.0 mi Calm Calm - N/A   Clear
7:15 PM 35.6 °F - 24.8 °F 65% 29.99 in 10.0 mi Calm Calm - N/A   Clear
7:35 PM 32.0 °F - 28.4 °F 87% 29.98 in 10.0 mi Calm Calm - N/A   Clear
7:55 PM 32.0 °F - 26.6 °F 80% 29.98 in 10.0 mi Calm Calm - N/A   Clear
8:15 PM 30.2 °F - 26.6 °F 86% 29.98 in 10.0 mi Calm Calm - N/A   Clear
8:35 PM 32.0 °F - 26.6 °F 80% 29.98 in 10.0 mi Calm Calm - N/A   Clear
8:55 PM 32.0 °F - 26.6 °F 80% 29.97 in 10.0 mi Calm Calm - N/A   Clear
9:15 PM 30.2 °F - 26.6 °F 86% 29.99 in 10.0 mi Calm Calm - N/A   Clear
9:35 PM 28.4 °F - 26.6 °F 93% 29.98 in 10.0 mi Calm Calm - N/A   Clear
9:55 PM 28.4 °F - 24.8 °F 86% 29.99 in 10.0 mi Calm Calm - N/A   Clear
10:15 PM 28.4 °F - 24.8 °F 86% 29.98 in 10.0 mi Calm Calm - N/A   Clear
10:35 PM 28.4 °F - 24.8 °F 86% 29.98 in 10.0 mi Calm Calm - N/A   Clear
10:55 PM 28.4 °F - 24.8 °F 86% 29.97 in 10.0 mi Calm Calm - N/A   Clear
11:15 PM 28.4 °F - 26.6 °F 93% 29.98 in 10.0 mi Calm Calm - N/A   Clear
11:35 PM 28.4 °F - 24.8 °F 86% 29.98 in 10.0 mi Calm Calm - N/A   Clear
11:55 PM 26.6 °F - 24.8 °F 93% 29.97 in 10.0 mi Calm Calm - N/A   Clear